• En España
  • Lista de países
  • Para 7 días
  • Temperatura del agua
  • Mapa Satelital
  • El tiempo en el mapa
  • Informadores
  • user-avatar
    Iniciar sesión

    Tiempo cada hora Plehanovo

    Hoy, 15 Agosto, Miércoles

    Tiempo Temperatura Precipitaciones Viento Presión Humedad
    00:00 +12°C° 0 mm 2 mps 740 mmHg 94%
    01:00 +10°C° 0 mm 2 mps 740 mmHg 95%
    02:00 +10°C° 0 mm 2 mps 740 mmHg 95%
    03:00 +10°C° 0 mm 2 mps 741 mmHg 96%
    04:00 +10°C° 0 mm 1 mps 741 mmHg 96%
    05:00 +10°C° 0 mm 2 mps 741 mmHg 93%
    06:00 +12°C° 0 mm 2 mps 741 mmHg 91%
    07:00 +13°C° 0 mm 2 mps 742 mmHg 88%
    08:00 +15°C° 0 mm 2 mps 742 mmHg 78%
    09:00 +17°C° 0 mm 2 mps 742 mmHg 68%
    10:00 +19°C° 0 mm 3 mps 742 mmHg 59%
    11:00 +20°C° 0 mm 3 mps 742 mmHg 55%
    12:00 +21°C° 0 mm 3 mps 742 mmHg 52%
    13:00 +22°C° 0 mm 3 mps 742 mmHg 48%
    14:00 +22°C° 0 mm 3 mps 742 mmHg 48%
    15:00 +22°C° 0 mm 3 mps 742 mmHg 48%
    16:00 +22°C° 0 mm 3 mps 742 mmHg 48%
    17:00 +21°C° 0 mm 3 mps 742 mmHg 56%
    18:00 +20°C° 0 mm 2 mps 742 mmHg 63%
    19:00 +18°C° 0 mm 2 mps 742 mmHg 70%
    20:00 +18°C° 0 mm 1 mps 743 mmHg 75%
    21:00 +15°C° 0 mm 1 mps 743 mmHg 79%
    22:00 +14°C° 0 mm 1 mps 743 mmHg 84%
    23:00 +13°C° 0 mm 1 mps 743 mmHg 86%

    Mañana, 16 Agosto, Jueves

    Tiempo Temperatura Precipitaciones Viento Presión Humedad
    00:00 +12°C° 0 mm 1 mps 743 mmHg 88%
    01:00 +12°C° 0 mm 1 mps 743 mmHg 90%
    02:00 +12°C° 0 mm 1 mps 742 mmHg 89%
    03:00 +12°C° 0 mm 1 mps 742 mmHg 88%
    04:00 +13°C° 0 mm 1 mps 742 mmHg 87%
    05:00 +13°C° 0,7 mm 1 mps 742 mmHg 89%
    06:00 +13°C° 0,7 mm 2 mps 741 mmHg 92%
    07:00 +13°C° 0,7 mm 2 mps 741 mmHg 94%
    08:00 +12°C° 2,8 mm 3 mps 740 mmHg 95%
    09:00 +12°C° 2,8 mm 3 mps 740 mmHg 96%
    10:00 +13°C° 2,8 mm 3 mps 740 mmHg 97%
    11:00 +13°C° 0,6 mm 3 mps 739 mmHg 97%
    12:00 +15°C° 0,6 mm 2 mps 739 mmHg 97%
    13:00 +15°C° 0,6 mm 2 mps 739 mmHg 97%
    14:00 +15°C° 0,2 mm 2 mps 739 mmHg 96%
    15:00 +16°C° 0,2 mm 3 mps 739 mmHg 95%
    16:00 +16°C° 0,2 mm 3 mps 739 mmHg 95%
    17:00 +14°C° 0 mm 3 mps 740 mmHg 94%
    18:00 +14°C° 0 mm 3 mps 740 mmHg 94%
    19:00 +13°C° 0 mm 3 mps 740 mmHg 93%
    20:00 +13°C° 0 mm 3 mps 740 mmHg 95%
    21:00 +13°C° 0 mm 2 mps 741 mmHg 96%
    22:00 +12°C° 0 mm 2 mps 741 mmHg 97%
    23:00 +12°C° 0 mm 2 mps 741 mmHg 97%

    Pasado mañana, 17 Agosto, Viernes

    Tiempo Temperatura Precipitaciones Viento Presión Humedad
    00:00 +10°C° 0 mm 2 mps 742 mmHg 97%
    01:00 +10°C° 0 mm 2 mps 742 mmHg 97%
    02:00 +10°C° 0 mm 2 mps 742 mmHg 97%
    03:00 +9°C° 0 mm 2 mps 742 mmHg 97%
    04:00 +9°C° 0 mm 2 mps 743 mmHg 97%
    05:00 +10°C° 0 mm 2 mps 743 mmHg 96%
    06:00 +10°C° 0 mm 2 mps 743 mmHg 94%
    07:00 +12°C° 0 mm 2 mps 744 mmHg 92%
    08:00 +13°C° 0 mm 3 mps 744 mmHg 83%
    09:00 +16°C° 0 mm 3 mps 744 mmHg 74%
    10:00 +17°C° 0 mm 3 mps 744 mmHg 65%
    11:00 +18°C° 0,1 mm 3 mps 744 mmHg 61%
    12:00 +19°C° 0,1 mm 3 mps 744 mmHg 56%
    13:00 +20°C° 0,1 mm 3 mps 744 mmHg 52%
    14:00 +19°C° 0,2 mm 4 mps 744 mmHg 55%
    15:00 +19°C° 0,2 mm 4 mps 745 mmHg 58%
    16:00 +19°C° 0,2 mm 4 mps 745 mmHg 61%
    17:00 +17°C° 0,1 mm 3 mps 745 mmHg 66%
    18:00 +16°C° 0,1 mm 3 mps 745 mmHg 72%
    19:00 +15°C° 0,1 mm 2 mps 745 mmHg 78%
    20:00 +13°C° 0 mm 2 mps 746 mmHg 81%
    21:00 +12°C° 0 mm 2 mps 746 mmHg 84%
    22:00 +10°C° 0 mm 2 mps 746 mmHg 87%
    23:00 +9°C° 0 mm 2 mps 747 mmHg 87%

    18 Agosto, Sábado

    Tiempo Temperatura Precipitaciones Viento Presión Humedad
    00:00 +8°C° 0 mm 2 mps 747 mmHg 88%
    01:00 +7°C° 0 mm 2 mps 747 mmHg 88%
    02:00 +7°C° 0 mm 2 mps 747 mmHg 90%
    03:00 +6°C° 0 mm 2 mps 748 mmHg 92%
    04:00 +6°C° 0 mm 2 mps 748 mmHg 95%
    05:00 +7°C° 0 mm 2 mps 748 mmHg 92%
    06:00 +7°C° 0 mm 3 mps 749 mmHg 89%
    07:00 +8°C° 0 mm 3 mps 749 mmHg 86%
    08:00 +10°C° 0 mm 3 mps 749 mmHg 77%
    09:00 +11°C° 0 mm 4 mps 749 mmHg 69%
    10:00 +13°C° 0 mm 4 mps 749 mmHg 60%
    11:00 +14°C° 0 mm 4 mps 749 mmHg 58%
    12:00 +14°C° 0 mm 4 mps 749 mmHg 55%
    13:00 +15°C° 0 mm 4 mps 749 mmHg 53%
    14:00 +15°C° 0 mm 4 mps 749 mmHg 52%
    15:00 +15°C° 0 mm 4 mps 749 mmHg 52%
    16:00 +15°C° 0 mm 4 mps 749 mmHg 52%
    17:00 +16°C° 0 mm 3 mps 749 mmHg 57%
    18:00 +15°C° 0 mm 2 mps 749 mmHg 63%
    19:00 +14°C° 0 mm 2 mps 749 mmHg 69%
    20:00 +12°C° 0 mm 1 mps 749 mmHg 74%
    21:00 +11°C° 0 mm 1 mps 749 mmHg 79%
    22:00 +9°C° 0 mm 1 mps 750 mmHg 84%
    23:00 +9°C° 0 mm 1 mps 750 mmHg 86%

    19 Agosto, Domingo

    Tiempo Temperatura Precipitaciones Viento Presión Humedad
    00:00 +8°C° 0 mm 1 mps 750 mmHg 87%
    01:00 +8°C° 0 mm 1 mps 750 mmHg 89%
    02:00 +8°C° 0 mm 1 mps 750 mmHg 90%
    03:00 +7°C° 0 mm 1 mps 750 mmHg 92%
    04:00 +7°C° 0 mm 1 mps 751 mmHg 93%
    05:00 +8°C° 0 mm 1 mps 751 mmHg 88%
    06:00 +9°C° 0 mm 1 mps 751 mmHg 83%
    07:00 +10°C° 0 mm 1 mps 751 mmHg 78%
    08:00 +13°C° 0 mm 1 mps 751 mmHg 70%
    09:00 +15°C° 0 mm 1 mps 751 mmHg 61%
    10:00 +18°C° 0 mm 1 mps 751 mmHg 53%
    11:00 +19°C° 0 mm 1 mps 751 mmHg 49%
    12:00 +21°C° 0 mm 1 mps 750 mmHg 45%
    13:00 +22°C° 0 mm 1 mps 750 mmHg 41%
    14:00 +22°C° 0 mm 1 mps 750 mmHg 41%
    15:00 +22°C° 0 mm 1 mps 749 mmHg 42%
    16:00 +22°C° 0 mm 1 mps 749 mmHg 42%
    17:00 +20°C° 0 mm 1 mps 749 mmHg 50%
    18:00 +17°C° 0 mm 0 mps 749 mmHg 57%
    19:00 +15°C° 0 mm 0 mps 748 mmHg 65%
    20:00 +14°C° 0 mm 0 mps 748 mmHg 68%
    21:00 +12°C° 0 mm 0 mps 748 mmHg 71%
    22:00 +12°C° 0 mm 1 mps 748 mmHg 74%
    23:00 +12°C° 0 mm 1 mps 748 mmHg 76%

    20 Agosto, Lunes

    Tiempo Temperatura Precipitaciones Viento Presión Humedad
    00:00 +11°C° 0 mm 1 mps 748 mmHg 77%
    01:00 +11°C° 0 mm 1 mps 748 mmHg 79%
    02:00 +10°C° 0 mm 1 mps 748 mmHg 81%
    03:00 +10°C° 0 mm 1 mps 748 mmHg 82%
    04:00 +10°C° 0 mm 1 mps 748 mmHg 84%
    05:00 +11°C° 0 mm 1 mps 748 mmHg 81%
    06:00 +12°C° 0 mm 1 mps 748 mmHg 78%
    07:00 +13°C° 0 mm 1 mps 748 mmHg 75%
    08:00 +15°C° 0 mm 1 mps 748 mmHg 67%
    09:00 +18°C° 0 mm 1 mps 748 mmHg 60%
    10:00 +21°C° 0 mm 1 mps 748 mmHg 53%
    11:00 +22°C° 0 mm 1 mps 747 mmHg 50%
    12:00 +23°C° 0 mm 1 mps 747 mmHg 47%
    13:00 +24°C° 0 mm 1 mps 747 mmHg 44%
    14:00 +24°C° 0 mm 1 mps 746 mmHg 45%
    15:00 +24°C° 0 mm 1 mps 746 mmHg 45%
    16:00 +24°C° 0 mm 2 mps 746 mmHg 46%
    17:00 +23°C° 0 mm 1 mps 745 mmHg 54%
    18:00 +21°C° 0 mm 1 mps 745 mmHg 62%
    19:00 +20°C° 0 mm 1 mps 745 mmHg 70%
    20:00 +18°C° 0 mm 1 mps 745 mmHg 75%
    21:00 +16°C° 0 mm 1 mps 745 mmHg 80%
    22:00 +14°C° 0 mm 1 mps 745 mmHg 84%
    23:00 +14°C° 0 mm 1 mps 744 mmHg 86%
    Mostrar más